Simultaneous Nadir Overpasses (SNOs) Predictions

Prediction of SNOs between NOAA-20 and AQUA Satellite Orbit:

Table of predicted SNOs for the next 14.0 days since TLE Epoch: 10/31/2025
Index Date (NOAA-20) Time (NOAA-20) Lat,Lon (NOAA-20) SZA (NOAA-20 ) Date (AQUA) Time (AQUA) Lat,Lon (AQUA) SZA (AQUA ) Distance(km) Time Diff (sec)
1 11/01/2025 07:33:59 -81.25,-176.42 80.14 11/01/2025 07:35:02 -81.25,-176.56 80.15 2.50 63
2 11/01/2025 08:24:44 81.25, -8.95 99.86 11/01/2025 08:24:19 81.24, -8.96 99.87 0.32 25
3 11/03/2025 17:05:00 -81.25, 40.98 79.41 11/03/2025 17:05:12 -81.26, 41.11 79.43 2.45 12
4 11/06/2025 01:45:17 81.25, 90.74 101.33 11/06/2025 01:46:04 81.24, 90.73 101.30 0.51 47
5 11/06/2025 02:36:01 -81.24,-101.67 78.70 11/06/2025 02:35:22 -81.24,-101.64 78.69 0.57 39
6 11/08/2025 11:16:17 81.24, -51.59 101.98 11/08/2025 11:16:12 81.25, -51.69 101.99 1.80 5
7 11/10/2025 19:56:33 -81.24, -1.77 77.35 11/10/2025 19:57:02 -81.25, -1.68 77.37 1.88 29
8 11/10/2025 20:47:17 81.24, 166.03 102.60 11/10/2025 20:46:19 81.25, 165.85 102.66 3.35 58
9 11/13/2025 04:36:49 81.24, 48.18 103.30 11/13/2025 04:37:50 81.25, 48.19 103.27 1.08 61



Historial Predications of SNOs between NOAA-20 and AQUA
